Location: *
(51.0333°S, 178.4667°E)
Time: 18:03:01
(UTC+00:00)

STARLINK-74 - Pass Details

Date: 15 November 2019
Orbit: 529 x 530 km, 53.0° (Epoch: 11 December)

Event Time Altitude Azimuth Distance (km) Brightness Sun altitude
Rises 07:59:13 0° 290° (WNW) 2,679 7.6 -4.1°
Reaches altitude 10° 08:01:25 10° 290° (WNW) 1,792 6.7 -4.4°
Maximum altitude 08:05:30 89° 16° (NNE) 544 3.6 -4.9°
Drops below altitude 10° 08:09:36 10° 107° (ESE) 1,801 5.9 -5.4°
Enters shadow 08:14:20 -8° 107° (ESE) 3,702 7.5 -6.0°
